When you browse on this site, cookies collect data to enhance your experience and personalize the content and advertising you see.
Visit our Privacy Policy to learn more. By continuing to use the site, you agree to this use of cookies and data.

Hourly Weather Brisbane

Today, 3 July, Friday

Time Temperature Precipitation Wind Pressure Humidity
00:00 +15°C° 0 mm 1 mps 765 mmHg 83%
01:00 +14°C° 0 mm 1 mps 765 mmHg 84%
02:00 +14°C° 0 mm 1 mps 765 mmHg 83%
03:00 +14°C° 0 mm 1 mps 765 mmHg 82%
04:00 +14°C° 0 mm 1 mps 765 mmHg 83%
05:00 +14°C° 0 mm 1 mps 765 mmHg 83%
06:00 +14°C° 0 mm 1 mps 765 mmHg 82%
07:00 +15°C° 0 mm 1 mps 766 mmHg 81%
08:00 +16°C° 0 mm 1 mps 766 mmHg 76%
09:00 +18°C° 0 mm 1 mps 766 mmHg 71%
10:00 +20°C° 0 mm 2 mps 766 mmHg 58%
11:00 +23°C° 0 mm 2 mps 765 mmHg 53%
12:00 +24°C° 0 mm 2 mps 764 mmHg 47%
13:00 +25°C° 0 mm 2 mps 763 mmHg 42%
14:00 +25°C° 0 mm 2 mps 763 mmHg 44%
15:00 +25°C° 0 mm 2 mps 763 mmHg 45%
16:00 +24°C° 0 mm 3 mps 763 mmHg 50%
17:00 +23°C° 0 mm 2 mps 763 mmHg 56%
18:00 +20°C° 0 mm 2 mps 763 mmHg 62%
19:00 +19°C° 0 mm 2 mps 763 mmHg 68%
20:00 +18°C° 0 mm 2 mps 763 mmHg 68%
21:00 +18°C° 0 mm 2 mps 763 mmHg 67%
22:00 +18°C° 0 mm 2 mps 763 mmHg 64%
23:00 +17°C° 0 mm 2 mps 763 mmHg 67%

Tomorrow, 4 July, Saturday

Time Temperature Precipitation Wind Pressure Humidity
00:00 +17°C° 0 mm 2 mps 763 mmHg 69%
01:00 +16°C° 0 mm 3 mps 762 mmHg 71%
02:00 +16°C° 0 mm 3 mps 762 mmHg 69%
03:00 +14°C° 0 mm 4 mps 762 mmHg 67%
04:00 +14°C° 0 mm 4 mps 762 mmHg 65%
05:00 +13°C° 0 mm 4 mps 763 mmHg 64%
06:00 +12°C° 0 mm 4 mps 763 mmHg 62%
07:00 +11°C° 0 mm 4 mps 763 mmHg 61%
08:00 +13°C° 0 mm 5 mps 763 mmHg 55%
09:00 +14°C° 0 mm 5 mps 763 mmHg 49%
10:00 +16°C° 0 mm 5 mps 763 mmHg 43%
11:00 +17°C° 0 mm 5 mps 763 mmHg 41%
12:00 +19°C° 0 mm 5 mps 762 mmHg 38%
13:00 +20°C° 0 mm 5 mps 761 mmHg 36%
14:00 +19°C° 0 mm 5 mps 761 mmHg 36%
15:00 +19°C° 0 mm 5 mps 761 mmHg 36%
16:00 +19°C° 0 mm 5 mps 761 mmHg 36%
17:00 +16°C° 0 mm 5 mps 762 mmHg 39%
18:00 +15°C° 0 mm 4 mps 762 mmHg 41%
19:00 +13°C° 0 mm 4 mps 763 mmHg 44%
20:00 +12°C° 0 mm 4 mps 763 mmHg 46%
21:00 +12°C° 0 mm 4 mps 763 mmHg 48%
22:00 +11°C° 0 mm 3 mps 764 mmHg 51%
23:00 +10°C° 0 mm 3 mps 764 mmHg 54%

Day after tomorrow, 5 July, Sunday

Time Temperature Precipitation Wind Pressure Humidity
00:00 +9°C° 0 mm 2 mps 764 mmHg 58%
01:00 +8°C° 0 mm 2 mps 764 mmHg 61%
02:00 +8°C° 0 mm 2 mps 764 mmHg 63%
03:00 +8°C° 0 mm 2 mps 764 mmHg 64%
04:00 +7°C° 0 mm 2 mps 764 mmHg 66%
05:00 +7°C° 0 mm 2 mps 764 mmHg 67%
06:00 +7°C° 0 mm 2 mps 764 mmHg 67%
07:00 +7°C° 0 mm 2 mps 765 mmHg 68%
08:00 +9°C° 0 mm 2 mps 765 mmHg 60%
09:00 +12°C° 0 mm 2 mps 765 mmHg 51%
10:00 +15°C° 0 mm 2 mps 765 mmHg 43%
11:00 +16°C° 0 mm 1 mps 765 mmHg 38%
12:00 +19°C° 0 mm 1 mps 764 mmHg 34%
13:00 +20°C° 0 mm 1 mps 764 mmHg 29%
14:00 +20°C° 0 mm 1 mps 764 mmHg 31%
15:00 +20°C° 0 mm 1 mps 764 mmHg 33%
16:00 +19°C° 0 mm 1 mps 763 mmHg 35%
17:00 +18°C° 0 mm 1 mps 764 mmHg 39%
18:00 +15°C° 0 mm 1 mps 764 mmHg 43%
19:00 +13°C° 0 mm 1 mps 765 mmHg 48%
20:00 +13°C° 0 mm 1 mps 765 mmHg 50%
21:00 +12°C° 0 mm 1 mps 766 mmHg 52%
22:00 +11°C° 0 mm 0 mps 766 mmHg 54%
23:00 +12°C° 0 mm 1 mps 766 mmHg 55%

6 July, Monday

Time Temperature Precipitation Wind Pressure Humidity
00:00 +11°C° 0 mm 1 mps 766 mmHg 56%
01:00 +11°C° 0 mm 1 mps 766 mmHg 57%
02:00 +10°C° 0 mm 2 mps 766 mmHg 58%
03:00 +9°C° 0 mm 2 mps 766 mmHg 59%
04:00 +9°C° 0 mm 2 mps 766 mmHg 60%
05:00 +9°C° 0 mm 2 mps 766 mmHg 61%
06:00 +9°C° 0 mm 2 mps 767 mmHg 62%
07:00 +9°C° 0 mm 2 mps 767 mmHg 63%
08:00 +12°C° 0 mm 2 mps 767 mmHg 58%
09:00 +14°C° 0 mm 2 mps 767 mmHg 52%
10:00 +17°C° 0 mm 2 mps 768 mmHg 46%
11:00 +18°C° 0 mm 2 mps 767 mmHg 45%
12:00 +21°C° 0 mm 1 mps 766 mmHg 43%
13:00 +22°C° 0 mm 1 mps 766 mmHg 42%
14:00 +22°C° 0 mm 1 mps 766 mmHg 44%
15:00 +22°C° 0 mm 1 mps 765 mmHg 47%
16:00 +21°C° 0 mm 1 mps 765 mmHg 49%
17:00 +19°C° 0 mm 1 mps 766 mmHg 56%
18:00 +18°C° 0 mm 1 mps 766 mmHg 63%
19:00 +15°C° 0 mm 1 mps 767 mmHg 71%
20:00 +15°C° 0 mm 1 mps 767 mmHg 73%
21:00 +14°C° 0 mm 1 mps 767 mmHg 75%
22:00 +13°C° 0 mm 2 mps 768 mmHg 77%
23:00 +13°C° 0 mm 2 mps 767 mmHg 78%

7 July, Tuesday

Time Temperature Precipitation Wind Pressure Humidity
00:00 +13°C° 0 mm 2 mps 767 mmHg 78%
01:00 +12°C° 0 mm 2 mps 767 mmHg 79%
02:00 +12°C° 0 mm 2 mps 767 mmHg 79%
03:00 +10°C° 0 mm 2 mps 767 mmHg 79%
04:00 +10°C° 0 mm 2 mps 767 mmHg 80%
05:00 +10°C° 0 mm 2 mps 767 mmHg 80%
06:00 +10°C° 0 mm 2 mps 767 mmHg 81%
07:00 +10°C° 0 mm 2 mps 768 mmHg 81%
08:00 +13°C° 0 mm 2 mps 768 mmHg 73%
09:00 +16°C° 0 mm 2 mps 768 mmHg 66%
10:00 +18°C° 0 mm 2 mps 768 mmHg 58%
11:00 +20°C° 0 mm 2 mps 767 mmHg 54%
12:00 +21°C° 0 mm 2 mps 767 mmHg 50%
13:00 +23°C° 0 mm 2 mps 766 mmHg 46%
14:00 +23°C° 0 mm 2 mps 766 mmHg 49%
15:00 +22°C° 0 mm 3 mps 766 mmHg 53%
16:00 +21°C° 0 mm 3 mps 766 mmHg 56%
17:00 +20°C° 0 mm 3 mps 766 mmHg 64%
18:00 +18°C° 0 mm 3 mps 766 mmHg 71%
19:00 +17°C° 0 mm 4 mps 767 mmHg 79%
20:00 +16°C° 0 mm 3 mps 767 mmHg 81%
21:00 +14°C° 0 mm 3 mps 767 mmHg 83%
22:00 +15°C° 0 mm 2 mps 767 mmHg 85%
23:00 +14°C° 0 mm 2 mps 767 mmHg 86%

8 July, Wednesday

Time Temperature Precipitation Wind Pressure Humidity
00:00 +14°C° 0 mm 2 mps 767 mmHg 86%
01:00 +13°C° 0 mm 2 mps 767 mmHg 86%
02:00 +13°C° 0 mm 2 mps 767 mmHg 87%
03:00 +13°C° 0 mm 2 mps 766 mmHg 88%
04:00 +13°C° 0 mm 2 mps 766 mmHg 88%
05:00 +12°C° 0.1 mm 2 mps 767 mmHg 88%
06:00 +12°C° 0.1 mm 2 mps 767 mmHg 88%
07:00 +12°C° 0.1 mm 2 mps 767 mmHg 88%
08:00 +13°C° 0.1 mm 2 mps 767 mmHg 84%
09:00 +14°C° 0.1 mm 2 mps 767 mmHg 80%
10:00 +15°C° 0.1 mm 2 mps 767 mmHg 77%
11:00 +16°C° 0 mm 2 mps 767 mmHg 75%
12:00 +16°C° 0 mm 1 mps 766 mmHg 74%
13:00 +16°C° 0 mm 1 mps 766 mmHg 72%
14:00 +16°C° 0 mm 1 mps 765 mmHg 72%
15:00 +18°C° 0 mm 1 mps 765 mmHg 72%
16:00 +18°C° 0 mm 1 mps 765 mmHg 71%
17:00 +16°C° 0 mm 1 mps 765 mmHg 73%
18:00 +16°C° 0 mm 1 mps 766 mmHg 75%
19:00 +16°C° 0 mm 1 mps 766 mmHg 77%
20:00 +16°C° 0 mm 1 mps 767 mmHg 78%
21:00 +16°C° 0 mm 1 mps 767 mmHg 79%
22:00 +16°C° 0 mm 1 mps 767 mmHg 79%
23:00 +15°C° 0 mm 1 mps 767 mmHg 81%
Show more